DW8078 Weather Reports


Display with metric or nautical units.
time (UTC)temp
F
wind
direction
speed
MPH
gust
MPH
rain 1hr
in
rain 24hr
in
rain mn
in
humidity
%
barometer
mb
20210515174625 63 162 0.0 0.0 0.00 0.04 0.00 60 1006.4
20210515173134 63 182 0.0 2.0 0.00 0.04 0.00 59 1006.3
20210515171640 63 184 0.0 7.0 0.00 0.04 0.00 57 1006.2
20210515170157 64 186 0.0 2.0 0.00 0.04 0.00 58 1006.2
20210515164638 64 175 0.0 0.0 0.00 0.10 0.00 56 1006.4
20210515163124 64 215 0.0 0.0 0.00 0.10 0.00 57 1006.5
20210515161646 63 187 0.0 3.0 0.00 0.10 0.00 59 1006.6
20210515160141 63 175 0.0 0.0 0.00 0.10 0.00 61 1006.6
20210515154649 63 194 0.0 0.0 0.00 0.10 0.00 61 1006.7
20210515153106 63 200 0.0 6.0 0.00 0.10 0.00 61 1006.8
20210515151712 65 203 0.0 0.0 0.00 0.10 0.00 59 1006.8
20210515150103 65 275 0.0 7.0 0.00 0.10 0.00 56 1006.9
20210515144616 65 187 0.0 1.0 0.00 0.10 0.00 58 1006.9
20210515143116 64 210 0.0 7.0 0.00 0.10 0.00 58 1007.0
20210515141546 63 299 2.0 9.0 0.00 0.10 0.00 60 1007.3
20210515140115 64 288 0.0 9.0 0.00 0.10 0.00 60 1007.3
20210515134634 64 184 1.0 7.0 0.00 0.10 0.00 64 1007.3
20210515133111 62 275 4.0 7.0 0.00 0.10 0.00 67 1007.5
20210515131548 61 355 0.0 0.0 0.00 0.10 0.00 68 1007.5
20210515130101 61 305 3.0 7.0 0.00 0.10 0.00 67 1007.6
20210515124627 61 304 3.0 8.0 0.00 0.10 0.00 67 1008.0
20210515123105 61 283 3.0 9.0 0.00 0.10 0.00 69 1007.9
20210515121603 60 333 0.0 0.0 0.00 0.10 0.00 73 1007.8
20210515120026 59 355 1.0 6.0 0.00 0.10 0.00 77 1007.8
20210515114515 57 296 5.0 9.0 0.00 0.10 0.00 79 1008.0
20210515113050 57 318 2.0 6.0 0.00 0.10 0.00 81 1007.9
20210515111512 55 271 4.0 9.0 0.00 0.10 0.00 86 1008.1
20210515110008 54 276 4.0 12.0 0.00 0.10 0.00 86 1008.2
20210515104535 54 292 5.0 8.0 0.00 0.10 0.00 86 1007.9
20210515103005 53 277 6.0 11.0 0.00 0.10 0.00 88 1007.8
20210515101527 53 302 3.0 7.0 0.00 0.10 0.00 89 1007.8
20210515100013 53 333 4.0 8.0 0.00 0.10 0.00 89 1007.9
20210515094746 52 310 6.0 10.0 0.00 0.10 0.00 89 1007.7
20210515093143 52 275 4.0 8.0 0.00 0.10 0.00 90 1007.7
20210515091615 52 300 3.0 9.0 0.00 0.10 0.00 90 1007.5
20210515090211 52 292 5.0 10.0 0.00 0.10 0.00 90 1007.5
20210515084644 52 259 6.0 11.0 0.00 0.10 0.00 90 1007.4
20210515083056 52 299 6.0 11.0 0.00 0.10 0.00 90 1007.3
20210515081630 52 304 3.0 10.0 0.00 0.10 0.00 90 1007.0
20210515080140 52 274 5.0 11.0 0.00 0.10 0.00 90 1007.0
20210515074616 52 290 4.0 10.0 0.00 0.10 0.00 91 1006.9
20210515073101 52 270 4.0 13.0 0.00 0.10 0.00 91 1006.8
20210515071606 52 294 5.0 11.0 0.00 0.10 0.00 91 1006.6
20210515070043 52 265 4.0 10.0 0.00 0.10 0.00 91 1006.5
20210515064800 52 267 6.0 11.0 0.00 0.10 0.00 91 1006.3
20210515063112 52 280 2.0 9.0 0.00 0.10 0.00 91 1006.2
20210515061610 52 268 4.0 9.0 0.00 0.10 0.00 91 1006.1
20210515060131 52 282 5.0 10.0 0.00 0.10 0.00 91 1006.1
20210515054615 52 271 5.0 10.0 0.00 0.10 0.00 91 1006.0
20210515053054 52 300 4.0 9.0 0.00 0.10 0.00 91 1006.0
20210515051544 52 271 5.0 10.0 0.00 0.10 0.00 91 1006.0
20210515050028 53 277 3.0 7.0 0.00 0.10 0.00 91 1005.9
20210515044535 53 284 4.0 9.0 0.00 0.10 0.00 91 1005.8
20210515043040 53 281 3.0 9.0 0.00 0.10 0.00 91 1005.7
20210515041547 53 292 5.0 9.0 0.00 0.10 0.00 91 1005.6
20210515040046 53 269 4.0 9.0 0.00 0.10 0.00 91 1005.4
20210515034529 53 295 5.0 9.0 0.00 0.10 0.00 91 1005.4
20210515033011 53 271 4.0 9.0 0.00 0.10 0.00 91 1005.3
20210515031515 54 285 4.0 8.0 0.00 0.10 0.00 90 1005.3
20210515030011 54 256 3.0 8.0 0.00 0.10 0.00 90 1005.1
20210515024508 54 277 1.0 6.0 0.00 0.10 0.00 90 1005.1
20210515023035 54 282 1.0 3.0 0.00 0.10 0.00 90 1005.1
20210515021507 54 287 2.0 5.0 0.00 0.10 0.00 90 1005.2
20210515020006 54 288 1.0 4.0 0.00 0.10 0.00 90 1005.2
20210515014507 54 272 2.0 5.0 0.00 0.10 0.00 90 1005.1
20210515013007 54 273 1.0 5.0 0.00 0.10 0.00 90 1005.1
20210515011504 54 264 1.0 3.0 0.00 0.10 0.00 90 1005.0
20210515010002 54 273 1.0 4.0 0.00 0.10 0.00 89 1004.9
20210515004619 54 245 0.0 0.0 0.00 0.10 0.00 89 1004.7
20210515003150 53 178 0.0 2.0 0.00 0.10 0.00 89 1004.7
20210515001638 53 167 0.0 1.0 0.00 0.10 0.00 89 1004.7
20210515000128 53 96 0.0 0.0 0.00 0.10 0.00 89 1004.7
20210514234619 52 96 0.0 0.0 0.00 0.10 0.00 88 1004.8
20210514233123 52 96 0.0 0.0 0.00 0.10 0.00 88 1004.8
20210514231714 52 96 0.0 0.0 0.00 0.10 0.00 88 1004.8
20210514230144 52 96 0.0 0.0 0.00 0.10 0.00 88 1004.8
20210514224634 52 96 0.0 0.0 0.00 0.10 0.00 88 1004.8
20210514223120 52 96 0.0 0.0 0.00 0.10 0.00 88 1004.7
20210514221647 53 96 0.0 0.0 0.01 0.10 0.00 88 1004.7
20210514220112 53 69 0.0 1.0 0.02 0.10 0.00 88 1004.7
20210514214645 53 50 0.0 1.0 0.03 0.10 0.10 87 1004.7
20210514213158 53 28 0.0 2.0 0.03 0.10 0.10 87 1004.7
20210514211646 53 69 0.0 4.0 0.02 0.09 0.09 87 1004.5
20210514210106 53 48 2.0 5.0 0.02 0.09 0.09 86 1004.5
20210514204633 54 24 0.0 0.0 0.00 0.07 0.07 86 1004.6
20210514203108 54 42 0.0 0.0 0.00 0.07 0.07 85 1004.5
20210514201628 54 90 0.0 0.0 0.00 0.07 0.07 84 1004.4
20210514200106 55 117 0.0 0.0 0.00 0.07 0.07 82 1004.2
20210514194655 55 117 0.0 0.0 0.00 0.07 0.07 81 1004.0
20210514193107 55 117 0.0 0.0 0.00 0.07 0.07 81 1004.1
20210514191605 55 117 0.0 0.0 0.00 0.07 0.07 81 1004.1
20210514190105 55 117 0.0 0.0 0.00 0.07 0.07 81 1004.1
20210514184554 55 125 0.0 0.0 0.00 0.07 0.07 81 1003.9
20210514183103 55 126 0.0 3.0 0.00 0.07 0.07 81 1003.8
20210514181544 55 62 0.0 4.0 0.00 0.07 0.07 80 1003.5
20210514180146 56 88 1.0 4.0 0.01 0.07 0.07 80 1003.4